[[{"header":{"parameterUnit":"m.s-1","parameterCategory":1,"la1":30.2991,"la2":30.254,"lo1":-89.0895,"lo2":-89.0444,"dy":0.0017,"dx":0.0017,"nx":28,"ny":28,"refTime":"2023-10-21T21:00:00:Z","depth":0,"parameterNumber":2,"parameterNumberName":"U-component_of_WINDS"},"data":[0,0,0,0,0,0,0,0,0,0,0,0,0,0,0,0,0,0,0,0,0,0,0,0,0,0,0,0,0,0,0,0,0,0,0,0,0,0,0,0,0,0,0,0,0,0,0,0,0,0,0,0,0,0,0,0,0,0,-0.3761,-0.3761,0,-0.3702,-0.3702,-0.3701,-0.3648,-0.3647,-0.3646,-0.3646,-0.3585,-0.3584,-0.3583,0,0,0,0,0,0,0,0,0,0,0,0,0,-0.3829,-0.3828,-0.3762,-0.3761,-0.376,-0.3702,-0.3702,-0.3701,-0.3648,-0.3647,-0.3646,-0.3646,-0.3585,-0.3584,-0.3583,0,0,0,0,0,0,0,0,0,0,0,0,0,-0.3788,-0.3828,-0.3762,-0.3727,-0.3723,-0.3703,-0.3702,-0.3701,-0.3648,-0.3647,-0.3646,-0.3645,-0.3586,-0.3584,-0.3583,-0.3592,0,0,-0.3578,-0.3577,0,0,0,0,0,0,0,0,-0.379,-0.3786,-0.3733,-0.3729,-0.3725,-0.3681,-0.3703,-0.3664,-0.3648,-0.3676,-0.3646,-0.3645,-0.3618,-0.3614,-0.3605,-0.3589,-0.3587,-0.3578,-0.3577,-0.3576,-0.3576,0,0,0,0,0,0,0,-0.3793,-0.3788,-0.3738,-0.3732,-0.3727,-0.3714,-0.3707,-0.3696,-0.3653,-0.3674,-0.367,-0.3664,-0.3616,-0.3606,-0.3603,-0.3586,-0.3578,-0.3576,-0.3576,-0.3575,-0.3576,-0.3577,0,0,0,0,0,0,-0.3802,-0.3791,-0.374,-0.3736,-0.3756,-0.3714,-0.3706,-0.3696,-0.3653,-0.3646,-0.3665,-0.3661,-0.3609,-0.3605,-0.36,-0.3608,-0.3576,-0.3575,-0.3574,-0.3575,-0.3576,-0.3577,0,0,0,0,0,0,-0.3803,-0.3798,-0.3742,-0.3762,-0.3754,-0.3714,-0.3703,-0.3696,-0.3686,-0.3646,-0.3638,-0.3663,-0.3608,-0.3603,-0.3595,-0.3605,-0.3574,-0.3573,-0.3574,-0.3575,-0.3577,-0.3625,0,0,0,0,0,0,-0.3805,-0.3798,-0.3801,-0.3763,-0.3753,-0.3738,-0.3704,-0.3695,-0.3684,-0.3679,-0.3642,-0.3635,-0.3607,-0.3597,-0.3593,-0.3603,-0.3571,-0.3573,-0.3574,-0.3576,-0.3622,-0.3628,-0.3632,0,0,0,0,0,-0.3808,-0.3817,-0.3802,-0.3796,-0.3756,-0.3738,-0.3733,-0.37,-0.3685,-0.3687,-0.3662,-0.3636,-0.3606,-0.3597,-0.3592,-0.3601,-0.3572,-0.3574,-0.3576,-0.362,-0.3626,-0.3632,0,0,0,0,0,0,-0.3858,-0.3811,-0.3794,-0.3791,-0.3769,-0.3729,-0.3731,-0.3709,-0.3691,-0.3687,-0.3648,-0.364,-0.3637,-0.3618,-0.361,-0.3608,-0.3585,-0.3586,-0.362,-0.3626,-0.3632,-0.3635,-0.357,0,0,0,0,0,-0.3868,-0.3858,-0.3818,-0.3819,-0.3809,-0.3773,-0.3763,-0.3741,-0.3716,-0.3707,-0.368,-0.3658,-0.3643,-0.3634,-0.3618,-0.362,-0.3611,-0.3624,-0.3629,-0.3634,-0.3635,-0.3634,-0.364,-0.3584,-0.3584,-0.3584,0,0,-0.389,-0.3863,-0.3859,-0.3828,-0.3809,-0.3798,-0.3765,-0.3755,-0.3747,-0.3705,-0.3696,-0.3676,-0.3648,-0.3646,-0.3643,-0.363,-0.3648,-0.3636,-0.364,-0.3639,-0.3637,-0.3642,-0.3647,-0.3585,-0.3585,-0.3585,0,0,-0.3924,-0.3903,-0.3902,-0.3883,-0.3854,-0.383,-0.383,-0.3794,-0.3779,-0.377,-0.3738,-0.3728,-0.3703,-0.3685,-0.3672,-0.3701,-0.3677,-0.3698,-0.3724,-0.3725,-0.3729,-0.3733,-0.3742,-0.3746,-0.3699,-0.3699,-0.3699,0,-0.3955,-0.3938,-0.3904,-0.3896,-0.3884,-0.3846,-0.3844,-0.3828,-0.3795,-0.3788,-0.3774,-0.3743,-0.3722,-0.3714,-0.3721,-0.3712,-0.3711,-0.3701,-0.3731,-0.3734,-0.3737,-0.3746,-0.375,-0.3702,-0.3701,-0.3701,-0.3701,0,-0.3976,-0.3965,-0.3968,-0.3937,-0.3925,-0.3921,-0.3887,-0.3879,-0.3858,-0.3836,-0.3827,-0.38,-0.3778,-0.3775,-0.3754,-0.3765,-0.3758,-0.3738,-0.3714,-0.3746,-0.3753,-0.3757,-0.3705,-0.3705,-0.3704,-0.3703,0,0,-0.4038,-0.399,-0.3992,-0.3977,-0.3943,-0.3934,-0.3929,-0.3908,-0.3901,-0.3881,-0.3875,-0.3856,-0.3838,-0.3824,-0.3801,-0.3801,-0.3826,-0.3782,-0.378,-0.379,-0.3835,-0.3849,-0.3854,-0.381,-0.3811,-0.3811,-0.3837,0,-0.4066,-0.4053,-0.4023,-0.402,-0.4009,-0.3974,-0.3969,-0.3948,-0.3927,-0.3915,-0.3893,-0.3879,-0.3857,-0.3848,-0.3847,-0.3823,-0.3834,-0.3821,-0.3804,-0.3804,-0.3811,-0.3858,-0.3872,-0.3898,-0.384,-0.3841,-0.3841,0,-0.4096,-0.4078,-0.4073,-0.404,-0.4034,-0.4031,-0.4009,-0.3999,-0.3974,-0.3959,-0.3945,-0.3919,-0.3912,-0.3891,-0.388,-0.3872,-0.3863,-0.3851,-0.3851,-0.3847,-0.3823,-0.3854,-0.3906,-0.3909,-0.3846,-0.3845,-0.3845,0,-0.4141,-0.4115,-0.4109,-0.4098,-0.406,-0.4058,-0.4042,-0.4016,-0.4006,-0.3988,-0.3981,-0.3962,-0.3951,-0.3938,-0.3908,-0.3896,-0.3901,-0.3877,-0.3888,-0.3889,-0.3889,-0.3889,-0.3939,-0.3886,-0.3886,-0.3886,-0.3886,0,-0.4174,-0.4172,-0.4128,-0.4125,-0.4122,-0.4089,-0.4087,-0.4068,-0.4046,-0.4038,-0.4007,-0.4,-0.3962,-0.3952,-0.3929,-0.3923,-0.3919,-0.3907,-0.39,-0.3908,-0.391,-0.3901,-0.3898,-0.3887,-0.3887,-0.3886,-0.3886,0,-0.4223,-0.4193,-0.4184,-0.4149,-0.414,-0.414,-0.411,-0.4105,-0.4083,-0.4074,-0.407,-0.4035,-0.4021,-0.3991,-0.3968,-0.3953,-0.3953,-0.3942,-0.3961,-0.3957,-0.3969,-0.3968,-0.4014,-0.4018,-0.3964,-0.3964,-0.3965,0,-0.4245,-0.4243,-0.4208,-0.42,-0.4185,-0.4174,-0.4163,-0.4131,-0.4121,-0.4094,-0.4092,-0.4076,-0.406,-0.4039,-0.4012,-0.3995,-0.3983,-0.4001,-0.398,-0.3989,-0.3983,-0.3983,-0.3982,-0.4005,-0.4006,-0.4006,-0.4007,0,-0.4288,-0.4274,-0.4259,-0.424,-0.4229,-0.4212,-0.4194,-0.419,-0.4153,-0.4144,-0.4129,-0.4117,-0.4094,-0.4078,-0.4057,-0.4041,-0.4018,-0.4014,-0.4015,-0.4023,-0.4033,-0.4027,-0.3972,-0.4012,-0.4012,-0.4011,-0.4011,-0.4011,-0.4324,-0.432,-0.4295,-0.428,-0.4263,-0.4247,-0.4241,-0.4219,-0.4206,-0.4184,-0.4167,-0.4153,-0.413,-0.4099,-0.4085,-0.4074,-0.4063,-0.4065,-0.4065,-0.4066,-0.4069,-0.4036,-0.407,-0.407,-0.407,-0.407,-0.407,0,-0.4364,-0.4346,-0.4333,-0.4309,-0.4298,-0.4278,-0.4257,-0.4248,-0.4237,-0.4217,-0.4203,-0.4186,-0.4171,-0.4144,-0.4126,-0.4123,-0.4112,-0.4119,-0.4118,-0.4115,-0.4081,-0.4081,-0.4128,-0.4128,-0.4128,-0.4128,-0.4128,-0.4128,-0.4384,-0.4377,-0.436,-0.4345,-0.4327,-0.4314,-0.4304,-0.4289,-0.4273,-0.4255,-0.4242,-0.4225,-0.4202,-0.4183,-0.4168,-0.416,-0.4155,-0.4166,-0.4155,-0.4123,-0.4117,-0.4112,-0.4112,-0.4165,-0.4165,-0.4189,-0.419,-0.419]},{"header":{"parameterUnit":"m.s-1","parameterCategory":1,"la1":30.2991,"la2":30.254,"lo1":-89.0895,"lo2":-89.0444,"dy":0.0017,"dx":0.0017,"nx":28,"ny":28,"refTime":"2023-10-21T21:00:00:Z","depth":0,"parameterNumber":3,"parameterNumberName":"V-component_of_WINDS"},"data":[0,0,0,0,0,0,0,0,0,0,0,0,0,0,0,0,0,0,0,0,0,0,0,0,0,0,0,0,0,0,0,0,0,0,0,0,0,0,0,0,0,0,0,0,0,0,0,0,0,0,0,0,0,0,0,0,0,0,2.6223,2.6223,0,2.6233,2.6233,2.6233,2.6293,2.6295,2.6296,2.6297,2.6302,2.6301,2.6299,0,0,0,0,0,0,0,0,0,0,0,0,0,2.6254,2.6253,2.6223,2.6223,2.6223,2.6233,2.6233,2.6233,2.6293,2.6295,2.6296,2.6298,2.6302,2.6301,2.6299,0,0,0,0,0,0,0,0,0,0,0,0,0,2.6249,2.6253,2.6223,2.6255,2.6257,2.6233,2.6233,2.6233,2.6292,2.6295,2.6297,2.6299,2.6303,2.6301,2.6299,2.6243,0,0,2.6293,2.6292,0,0,0,0,0,0,0,0,2.6249,2.6248,2.625,2.6252,2.6256,2.6264,2.6245,2.6236,2.6292,2.6279,2.6297,2.63,2.6287,2.6287,2.6283,2.6243,2.6243,2.6293,2.6292,2.6291,2.6291,0,0,0,0,0,0,0,2.625,2.6248,2.6227,2.625,2.6253,2.6267,2.6269,2.6244,2.627,2.628,2.6285,2.6285,2.6289,2.6285,2.6284,2.6243,2.6293,2.6291,2.629,2.629,2.616,2.6158,0,0,0,0,0,0,2.6246,2.6248,2.6226,2.6227,2.6258,2.6265,2.6267,2.6259,2.6271,2.6275,2.6283,2.6288,2.6287,2.6286,2.6284,2.6221,2.6291,2.6289,2.6288,2.6163,2.616,2.6157,0,0,0,0,0,0,2.6247,2.6244,2.6226,2.6239,2.6238,2.6262,2.6253,2.6258,2.6254,2.6273,2.6278,2.6275,2.6289,2.6287,2.6254,2.6222,2.6288,2.6287,2.6165,2.6162,2.6159,2.6094,0,0,0,0,0,0,2.6247,2.6244,2.6223,2.6238,2.6237,2.6196,2.6251,2.6257,2.6251,2.6258,2.6266,2.627,2.629,2.6256,2.6252,2.6221,2.6285,2.6168,2.6164,2.616,2.6099,2.6089,2.608,0,0,0,0,0,2.6248,2.6203,2.6222,2.6219,2.6212,2.6194,2.6193,2.622,2.6248,2.6228,2.6241,2.6269,2.6226,2.6252,2.6248,2.6216,2.617,2.6165,2.616,2.6103,2.6091,2.608,0,0,0,0,0,0,2.6181,2.6205,2.6226,2.6185,2.6187,2.6204,2.6179,2.6205,2.6198,2.6204,2.6235,2.6237,2.6199,2.6204,2.6232,2.6164,2.6204,2.6197,2.6162,2.615,2.6141,2.614,2.6284,0,0,0,0,0,2.6161,2.6146,2.6168,2.6129,2.6129,2.6154,2.6147,2.6168,2.6171,2.6171,2.6182,2.6182,2.617,2.616,2.6149,2.61,2.6103,2.6076,2.6066,2.6058,2.6053,2.6029,2.6018,2.614,2.6141,2.6141,0,0,2.612,2.6132,2.612,2.6116,2.612,2.6103,2.6154,2.6133,2.6121,2.6168,2.6138,2.6146,2.6149,2.6108,2.6091,2.6111,2.602,2.6052,2.6045,2.6044,2.6023,2.6011,2.6001,2.6137,2.6138,2.6138,0,0,2.6038,2.6044,2.6014,2.6018,2.6026,2.6043,2.6035,2.6049,2.6057,2.6028,2.6064,2.6049,2.6025,2.6027,2.6024,2.5945,2.5972,2.594,2.589,2.5867,2.5858,2.5849,2.5822,2.5812,2.5934,2.5934,2.5934,0,2.5985,2.5963,2.5994,2.5973,2.597,2.6014,2.5984,2.5986,2.5987,2.5984,2.6008,2.5981,2.5986,2.5948,2.5929,2.5925,2.5918,2.5939,2.5857,2.5849,2.5841,2.5816,2.5806,2.593,2.5931,2.5931,2.5932,0,2.5899,2.5883,2.5857,2.5862,2.5856,2.5829,2.5857,2.5847,2.5869,2.5883,2.5854,2.5862,2.5854,2.5847,2.5866,2.5811,2.5824,2.5851,2.5892,2.5825,2.5802,2.5793,2.5925,2.5926,2.5928,2.5928,0,0,2.5773,2.5797,2.5787,2.5791,2.5803,2.5791,2.5767,2.5762,2.5754,2.5754,2.5735,2.5715,2.5742,2.5739,2.5759,2.5739,2.5678,2.5769,2.577,2.5753,2.562,2.56,2.5589,2.5696,2.5694,2.5693,2.5621,0,2.5695,2.5657,2.5686,2.5643,2.5629,2.5672,2.5651,2.5656,2.5669,2.5659,2.5673,2.566,2.5695,2.5694,2.5676,2.5689,2.5652,2.5695,2.5678,2.5677,2.5677,2.5576,2.5555,2.5486,2.5612,2.561,2.5609,0,2.5598,2.5598,2.5554,2.5572,2.5567,2.5548,2.5547,2.5537,2.5544,2.5555,2.5553,2.558,2.5557,2.5598,2.5567,2.5596,2.5591,2.5597,2.5595,2.5595,2.5639,2.5574,2.5464,2.5455,2.5595,2.5596,2.5597,0,2.5513,2.55,2.5474,2.5475,2.5494,2.5481,2.5488,2.5497,2.5493,2.5492,2.549,2.5484,2.5482,2.5477,2.5501,2.5528,2.5469,2.551,2.5477,2.5477,2.5463,2.5464,2.5352,2.5458,2.5458,2.5458,2.5459,0,2.5423,2.5395,2.5436,2.5419,2.5389,2.5422,2.5391,2.5403,2.5411,2.5397,2.5433,2.5419,2.5452,2.5441,2.546,2.5433,2.5431,2.5439,2.5445,2.5437,2.5436,2.5434,2.544,2.5456,2.5456,2.5457,2.5457,0,2.5322,2.5348,2.5322,2.5344,2.5349,2.5326,2.5344,2.533,2.5346,2.5328,2.5326,2.5352,2.5341,2.5365,2.5357,2.537,2.5332,2.5345,2.5331,2.5335,2.5301,2.5304,2.5185,2.5172,2.5285,2.5284,2.5283,0,2.5263,2.5243,2.5264,2.5259,2.5265,2.5255,2.5252,2.5284,2.5279,2.5287,2.5272,2.5265,2.5261,2.5242,2.5259,2.5254,2.5267,2.5226,2.5266,2.526,2.5268,2.527,2.5269,2.5217,2.5216,2.5215,2.5214,0,2.5157,2.5172,2.5167,2.5168,2.5164,2.5165,2.5169,2.5162,2.5197,2.5189,2.5181,2.5178,2.5172,2.5165,2.5164,2.517,2.5198,2.5201,2.5194,2.5185,2.5179,2.5184,2.5309,2.5204,2.5205,2.5205,2.5206,2.5206,2.5077,2.5062,2.5075,2.5069,2.5076,2.5079,2.5068,2.5085,2.5078,2.5077,2.5096,2.5084,2.5093,2.5095,2.5099,2.509,2.5108,2.5097,2.5094,2.5091,2.5086,2.518,2.5089,2.5089,2.509,2.509,2.509,0,2.4974,2.4985,2.498,2.4986,2.4981,2.501,2.5016,2.501,2.4999,2.5007,2.5003,2.4994,2.4988,2.5006,2.5002,2.4991,2.5004,2.4989,2.4991,2.4992,2.5069,2.5077,2.4979,2.4979,2.4979,2.4979,2.4979,2.4979,2.492,2.4897,2.4914,2.4895,2.4906,2.4896,2.4898,2.4901,2.4907,2.4896,2.4892,2.4905,2.4917,2.4915,2.4911,2.4916,2.4914,2.4895,2.4905,2.4976,2.4987,2.4997,2.5004,2.4894,2.4894,2.4829,2.4829,2.4828]}]]